星链-4366 (STARLINK-4366 )

导读

STARLINK-4366是美国SpaceX公司星链星座中的一颗卫星,于2022年7月22日发射升空,作为星链互联网星座的组成部分,它主要为全球范围内提供低延迟、高速率的宽带互联网服务,尤其服务偏远地区、海洋空域等基础设施难以覆盖的区域,是星链大规模组网部署过程中的重要节点。

Basic Information
目录编号:
53227
目录名称:
STARLINK-4366
国际标识:
2022-084AQ
轨道中心:
EARTH
卫星名称:
星链-4366
卫星全名:
星链-4366 (STARLINK-4366 )
卫星状态:
在轨 (已飞行1426 天)
发射日期:
2022-07-22 UTC
国别 :
美国 (US)
星等 :
--
Orbit Information
数据来源 国际轨道数据 AOE轨道数据
星历时间 2026-06-17T10:29:13+0800
9小时前
查看轨道信息
2026-06-17T00:00:00+0800
19小时前
查看轨道信息
半长轴 6927.697km 6927.618km
偏心率 0.0000604 0.0001431
轨道倾角 97.352° 97.367°
近地点辐角 107.824° 73.437°
升交点赤经 228.208° 227.796°
平近点角 252.306° 79.878°
近地点 549.141km 548.489km
远地点 549.979km 550.473km
周期 95.641分钟 95.639分钟
每日圈数 15.056343 15.056601
Detailed Information
固有亮度:
5
最大亮度:
2.5
卫星平台:
Starlink v1.5
覆盖范围:
全球
运营商:
太空探索技术公司
运营商所在国:
美国
制造商(研发单位):
太空探索技术公司
制造商所在国:
美国
使用方式:
暂无
Satellite Introduction
星链(Starlink)计划是由太空探索技术公司(SpaceX)提出的一个巨型低轨卫星互联网星座项目,计划在2019年至2024年间在太空搭建由约1.2万颗卫星组成的“星链”网络,其中1584颗将部署在地球上空550千米处的近地轨道,并从2020年开始工作。该卫星仍在工作。
2D Orbit Map
3D Orbit Map
Orbit Altitude Analysis Chart
Orbit Inclination Analysis Chart
Orbit Comprehensive Analysis Chart
View Comprehensive Chart